STARLINK-4670, 53744

Orbit data source: Space-Track

STARLINK-4670, 53744 is a payload satellite owned by SpaceX/Seattle (US) in LEO that was launched on Mon, 05 Sep 2022 UTC via an FALCON 9 launch vehicle from the Air Force Eastern Test Range (AFETR). Payload-class satellites include a variety of spacecraft equipped with specific instruments for various scientific and technological missions. These include communications satellites like Starlink; space stations such as the ISS; scientific satellites like the Hubble; Earth observation satellites from companies like Planet Labs, Umbra, and HawkEye 360; GPS; miniature CubeSats for education and research; and military/defense satellites.

Loading next visibility...
Identifier
53744, 2022-107AW
Orbit
LEO
Country
Flag of USUS
Related business
Manufacturer
SpaceX/Seattle
Mission
Operational Commercial Communications
Bus & Motor
STARLINK, Unknown motor
Mass
305 kg wet, ~290 kg dry
Launch date (UTC)
2022-09-05 (4 years ago)
Launch vehicle
FALCON 9
Launch site
Air Force Eastern Test Range (AFETR)
Object type
Payload
Rocket body
Debris
Shape & HBR
Box + 1 Pan, 10.1 m
Radar Cross Section
13.562 m², Large (>1 m²)

Expand to show TLE details & history
Last TLE update: 2 days ago

TLE from 2 days ago
0 STARLINK-4670
1 53744U 22107AW  26171.26117053 -.00003047  00000-0 -17345-3 0  9996
2 53744  53.1589 163.1679 0001244  78.4568 281.6563 15.08838818210080
Epoch: 2026-06-20T06:16Z
TLE epoch observation values (Epoch: 2026-06-20T06:16:05.133Z)
Latitude
-0.00004°
Longitude
160.66815°
Altitude
540.464 km
Speed
7.593 km/s
True Right ascension
10h 52m 40s
True Declination
0° 00' 00"
Sunlit
Object was in daylight at epoch
Visualization orbit readout
Latitude
Unknown
Longitude
Unknown
Altitude
Unknown
Speed
Unknown
Apparent Right ascension
Unknown
Apparent Declination
Unknown
Sunlit
N/A
Visualization observer readout
Local Sidereal Time
21:27:03
Azimuth
Unknown
Elevation
Unknown
Doppler factor
Unknown
Orbital elements
Apogee altitude
540.862 km
Perigee altitude
539.141 km
Semi-major axis
6,918.138 km
Eccentricity
0.00012
Inclination
53.1589°
RAAN
163.1679°
Arg. of periapsis
78.4568°
True anomaly
281.64234°
Mean anomaly
281.6563°
Eccentric anomaly
281.64932°
Mean motion
3.77189 °/min
Orbital period
95.44 mins
BSTAR
-0.00017345
Loading maneuver chart data...
Computing Atmospheric mass density...
Loading historical data...
Loading historical data...
Loading historical data...
Loading historical data...
Loading historical data...
Loading historical data...
Loading historical data...

Documentation

Showing up to 5 results
|